[[{"header":{"parameterUnit":"m.s-1","parameterCategory":1,"la1":30.2991,"la2":30.254,"lo1":-89.0895,"lo2":-89.0444,"dy":0.0017,"dx":0.0017,"nx":28,"ny":28,"refTime":"2024-07-28T09:00:00:Z","depth":0,"parameterNumber":2,"parameterNumberName":"U-component_of_WINDS"},"data":[0,0,0,0,0,0,0,0,0,0,0,0,0,0,0,0,0,0,0,0,0,0,0,0,0,0,0,0,0,0,0,0,0,0,0,0,0,0,0,0,0,0,0,0,0,0,0,0,0,0,0,0,0,0,0,0,0,0,1.3859,1.3858,0,1.38,1.3799,1.3798,1.3717,1.3715,1.3714,1.3713,1.3653,1.3652,1.3652,0,0,0,0,0,0,0,0,0,0,0,0,0,1.3901,1.39,1.3859,1.3858,1.3858,1.38,1.3799,1.3798,1.3717,1.3715,1.3714,1.3712,1.3653,1.3652,1.3652,0,0,0,0,0,0,0,0,0,0,0,0,0,1.3866,1.39,1.3859,1.381,1.3805,1.38,1.3799,1.3798,1.3717,1.3715,1.3713,1.3711,1.3653,1.3652,1.3652,1.369,0,0,1.365,1.365,0,0,0,0,0,0,0,0,1.3868,1.3865,1.3818,1.3814,1.3808,1.3764,1.3791,1.3762,1.3718,1.3751,1.3713,1.371,1.3691,1.3687,1.3681,1.3687,1.3685,1.365,1.365,1.365,1.365,0,0,0,0,0,0,0,1.3871,1.3867,1.3836,1.3818,1.3811,1.3791,1.3783,1.3785,1.3733,1.3748,1.3742,1.3736,1.3688,1.3682,1.3679,1.3684,1.365,1.365,1.365,1.3649,1.3714,1.3716,0,0,0,0,0,0,1.3881,1.3869,1.3837,1.3834,1.3834,1.3792,1.3783,1.378,1.3733,1.3724,1.3738,1.3732,1.3683,1.368,1.3676,1.3715,1.365,1.3649,1.3649,1.3712,1.3715,1.3717,0,0,0,0,0,0,1.3882,1.3879,1.384,1.385,1.3843,1.3793,1.379,1.378,1.3773,1.3725,1.3716,1.3741,1.3682,1.3677,1.3686,1.3712,1.3649,1.3649,1.371,1.3713,1.3716,1.3794,0,0,0,0,0,0,1.3883,1.3879,1.3894,1.3851,1.3843,1.3851,1.3791,1.378,1.3772,1.3765,1.3726,1.3717,1.368,1.3687,1.3686,1.371,1.3648,1.3707,1.3711,1.3715,1.3789,1.38,1.3809,0,0,0,0,0,1.3885,1.3919,1.3895,1.3892,1.386,1.3853,1.3849,1.3805,1.3775,1.3788,1.3757,1.3718,1.371,1.3689,1.3687,1.3711,1.3705,1.371,1.3715,1.3785,1.3798,1.3808,0,0,0,0,0,0,1.3968,1.3913,1.3885,1.3907,1.3885,1.3839,1.3855,1.382,1.3807,1.38,1.3747,1.3738,1.3753,1.3733,1.3711,1.3743,1.3701,1.3706,1.3756,1.3767,1.3777,1.3781,1.3648,0,0,0,0,0,1.3988,1.3987,1.394,1.3963,1.3953,1.3907,1.3902,1.387,1.3845,1.3835,1.3805,1.3783,1.3774,1.377,1.376,1.3786,1.3775,1.3802,1.3811,1.3819,1.3823,1.3832,1.3842,1.3732,1.3732,1.3732,0,0,1.4031,1.4001,1.4004,1.3979,1.3958,1.3957,1.3899,1.3902,1.39,1.3836,1.3841,1.3819,1.379,1.3807,1.3813,1.379,1.3851,1.3825,1.3832,1.3831,1.3838,1.3848,1.3857,1.3735,1.3734,1.3734,0,0,1.4108,1.4086,1.4101,1.4081,1.4051,1.4019,1.4023,1.3982,1.3963,1.3968,1.3919,1.3916,1.3904,1.3884,1.3873,1.394,1.3902,1.3938,1.3988,1.3997,1.4006,1.4013,1.4034,1.4043,1.3942,1.3943,1.3943,0,1.4164,1.4161,1.4114,1.4118,1.4107,1.4049,1.4063,1.4046,1.4014,1.4007,1.3983,1.3964,1.3941,1.395,1.3966,1.396,1.3961,1.3942,1.4009,1.4016,1.4022,1.4041,1.4049,1.3947,1.3947,1.3946,1.3946,0,1.4231,1.423,1.4246,1.4214,1.4206,1.4216,1.4168,1.4165,1.4133,1.4104,1.4108,1.4078,1.4059,1.4059,1.403,1.4064,1.4051,1.4019,1.3975,1.4037,1.4054,1.4061,1.3953,1.3952,1.395,1.3949,0,0,1.4358,1.4299,1.4306,1.4289,1.425,1.4247,1.4253,1.4234,1.4231,1.4211,1.4213,1.4203,1.4171,1.4158,1.4125,1.4134,1.4184,1.41,1.4098,1.4114,1.4217,1.424,1.4249,1.416,1.4161,1.4162,1.4218,0,1.4425,1.4431,1.4388,1.4405,1.4402,1.4345,1.435,1.4325,1.4298,1.429,1.4259,1.4251,1.4213,1.4204,1.421,1.4177,1.4204,1.4173,1.4159,1.4159,1.4166,1.4258,1.4283,1.4337,1.4225,1.4226,1.4227,0,1.4504,1.4486,1.4503,1.446,1.4457,1.4462,1.4439,1.4433,1.4404,1.4383,1.4367,1.4328,1.4329,1.4289,1.4289,1.4268,1.426,1.4243,1.4244,1.424,1.4195,1.4254,1.4354,1.4361,1.4237,1.4237,1.4236,0,1.4591,1.4571,1.4578,1.4566,1.4517,1.4521,1.4501,1.447,1.446,1.444,1.4433,1.4415,1.4404,1.439,1.4346,1.4322,1.4349,1.4307,1.433,1.4331,1.4337,1.4337,1.4435,1.4337,1.4336,1.4336,1.4336,0,1.4669,1.4681,1.4616,1.462,1.4631,1.458,1.4592,1.4566,1.4538,1.4535,1.4486,1.4484,1.4428,1.4419,1.4385,1.4388,1.4384,1.4366,1.4356,1.4369,1.4371,1.4361,1.4355,1.4338,1.4338,1.4337,1.4337,0,1.4767,1.4725,1.4727,1.468,1.4668,1.4678,1.4637,1.4638,1.4607,1.4603,1.4599,1.455,1.4537,1.4492,1.4469,1.4446,1.4458,1.4442,1.4468,1.4461,1.4486,1.4483,1.4579,1.4588,1.4487,1.4488,1.4489,0,1.4818,1.4825,1.4778,1.4772,1.4754,1.4746,1.4735,1.4685,1.4676,1.4641,1.4646,1.4629,1.4612,1.4593,1.4555,1.4536,1.4517,1.4552,1.4513,1.4525,1.4513,1.4512,1.4512,1.4559,1.4561,1.4562,1.4563,0,1.4912,1.489,1.4877,1.4856,1.4844,1.4825,1.4803,1.4801,1.4745,1.4737,1.4723,1.471,1.4684,1.4667,1.4641,1.4619,1.4581,1.4575,1.4579,1.4591,1.4604,1.4594,1.4487,1.4573,1.4572,1.4571,1.4571,1.457,1.4986,1.4989,1.4955,1.4941,1.4919,1.49,1.4897,1.4865,1.4852,1.4827,1.4798,1.4786,1.4754,1.4715,1.4696,1.4685,1.4664,1.4671,1.4672,1.4674,1.4678,1.4608,1.468,1.468,1.468,1.4679,1.4679,0,1.5075,1.505,1.5038,1.5008,1.4997,1.4962,1.4935,1.4928,1.4918,1.4891,1.4875,1.4857,1.4839,1.4799,1.4777,1.4775,1.4757,1.4771,1.4769,1.4764,1.47,1.4697,1.4786,1.4786,1.4786,1.4786,1.4786,1.4786,1.512,1.5122,1.5096,1.5085,1.506,1.5048,1.5035,1.5015,1.4993,1.4975,1.496,1.4934,1.49,1.4875,1.4857,1.4845,1.4838,1.4857,1.484,1.4779,1.4769,1.4759,1.4757,1.4857,1.4857,1.4904,1.4905,1.4905]},{"header":{"parameterUnit":"m.s-1","parameterCategory":1,"la1":30.2991,"la2":30.254,"lo1":-89.0895,"lo2":-89.0444,"dy":0.0017,"dx":0.0017,"nx":28,"ny":28,"refTime":"2024-07-28T09:00:00:Z","depth":0,"parameterNumber":3,"parameterNumberName":"V-component_of_WINDS"},"data":[0,0,0,0,0,0,0,0,0,0,0,0,0,0,0,0,0,0,0,0,0,0,0,0,0,0,0,0,0,0,0,0,0,0,0,0,0,0,0,0,0,0,0,0,0,0,0,0,0,0,0,0,0,0,0,0,0,0,3.9789,3.979,0,3.986,3.9861,3.9862,3.9801,3.9798,3.9796,3.9794,3.9864,3.9868,3.9872,0,0,0,0,0,0,0,0,0,0,0,0,0,3.9595,3.9599,3.9789,3.979,3.9791,3.986,3.9861,3.9862,3.9801,3.9798,3.9795,3.9792,3.9863,3.9868,3.9873,0,0,0,0,0,0,0,0,0,0,0,0,0,3.9674,3.9601,3.9789,3.9769,3.9768,3.986,3.9861,3.9862,3.9802,3.9798,3.9795,3.9791,3.9861,3.9867,3.9874,3.9988,0,0,3.9893,3.9896,0,0,0,0,0,0,0,0,3.967,3.9682,3.9771,3.9771,3.977,3.9818,3.9819,3.9905,3.9803,3.9789,3.9794,3.9789,3.9852,3.9859,3.988,3.9992,3.9995,3.9893,3.9897,3.99,3.9902,0,0,0,0,0,0,0,3.9665,3.9678,3.9817,3.9772,3.9772,3.9755,3.9762,3.9835,3.9841,3.979,3.9786,3.9795,3.985,3.9874,3.9881,3.9996,3.9893,3.9899,3.9903,3.9905,4.02,4.0204,0,0,0,0,0,0,3.9662,3.9674,3.9815,3.9819,3.971,3.9761,3.9769,3.9806,3.984,3.9841,3.9798,3.9792,3.9865,3.9874,3.9884,4.0017,3.99,3.9906,3.991,4.0196,4.0201,4.0205,0,0,0,0,0,0,3.9658,3.9675,3.9812,3.9746,3.9762,3.9769,3.9811,3.981,3.9833,3.9846,3.9846,3.9822,3.9863,3.9875,3.9962,4.0019,3.9909,3.9915,4.0191,4.0197,4.0203,4.0287,0,0,0,0,0,0,3.9653,3.9674,3.9719,3.9747,3.9766,3.9891,3.9814,3.9814,3.9845,3.9837,3.9868,3.987,3.9861,3.9953,3.9968,4.0025,3.992,4.0186,4.0194,4.0201,4.0279,4.0295,4.0308,0,0,0,0,0,3.9646,3.9741,3.9722,3.9739,3.9823,3.9895,3.9905,3.9893,3.985,3.9894,3.9901,3.9869,4.001,3.9962,3.9979,4.0039,4.0182,4.0192,4.02,4.0272,4.0292,4.0308,0,0,0,0,0,0,3.972,3.9744,3.9724,3.983,3.9861,3.9884,3.994,3.9915,3.9958,3.9949,3.9932,3.994,4.0031,4.0044,3.999,4.0149,4.0089,4.0102,4.0138,4.0156,4.0171,4.0165,3.9925,0,0,0,0,0,3.9748,3.9806,3.9824,3.9916,3.9932,3.9934,3.9965,3.9953,3.9983,3.9996,4.001,4.004,4.009,4.0124,4.0172,4.028,4.0284,4.033,4.0344,4.0356,4.0367,4.0421,4.0441,4.0235,4.0235,4.0234,0,0,3.9808,3.9828,3.9866,3.9931,3.9953,4.0011,3.9945,4.001,4.0052,4.0005,4.0088,4.0099,4.0131,4.0228,4.0272,4.0242,4.0425,4.0368,4.0378,4.0382,4.0433,4.0452,4.047,4.0241,4.024,4.0239,0,0,3.9946,3.9969,4.0046,4.0069,4.0103,4.0103,4.0121,4.0148,4.0153,4.0236,4.0201,4.0249,4.0339,4.0361,4.0385,4.0527,4.0497,4.0543,4.062,4.0673,4.0689,4.0704,4.0751,4.0769,4.0554,4.0554,4.0555,0,4.0016,4.0103,4.0089,4.0156,4.0184,4.0144,4.022,4.0243,4.0291,4.031,4.0276,4.0384,4.0403,4.0503,4.0537,4.0559,4.0577,4.0539,4.0688,4.0702,4.0716,4.0761,4.0779,4.056,4.0559,4.0558,4.0558,0,4.0185,4.0246,4.0304,4.035,4.0385,4.0457,4.0451,4.0488,4.0472,4.0474,4.0556,4.0577,4.0627,4.065,4.0636,4.0747,4.0727,4.0691,4.0629,4.0741,4.0782,4.08,4.0567,4.0565,4.0564,4.0562,0,0,4.0374,4.0409,4.043,4.0449,4.0481,4.0527,4.0595,4.0643,4.0673,4.0707,4.0761,4.0835,4.0801,4.0828,4.0815,4.0862,4.0969,4.082,4.082,4.0845,4.1089,4.1114,4.1134,4.095,4.0953,4.0956,4.1085,0,4.0511,4.0629,4.0617,4.0729,4.0782,4.0743,4.0801,4.0827,4.083,4.0874,4.0878,4.0929,4.0882,4.0897,4.0942,4.0947,4.1017,4.0938,4.0998,4.1,4.0989,4.1157,4.1184,4.1305,4.1102,4.1104,4.1106,0,4.0687,4.0725,4.0843,4.0863,4.0885,4.0938,4.0979,4.1023,4.1049,4.1048,4.1076,4.1054,4.1119,4.1057,4.1145,4.1091,4.1115,4.112,4.1125,4.1128,4.1059,4.1163,4.1344,4.1361,4.1133,4.1131,4.1129,0,4.0809,4.089,4.0969,4.0986,4.1014,4.1051,4.1064,4.1086,4.1115,4.115,4.1167,4.121,4.1233,4.1266,4.1255,4.1211,4.1344,4.1282,4.1342,4.1343,4.1371,4.1369,4.1557,4.139,4.139,4.139,4.1389,0,4.0962,4.1034,4.1023,4.1072,4.1151,4.1134,4.1212,4.122,4.124,4.1287,4.1256,4.1302,4.1286,4.1329,4.1322,4.1393,4.1405,4.1404,4.14,4.1405,4.1405,4.1419,4.141,4.1394,4.1393,4.1392,4.1392,0,4.1111,4.1107,4.119,4.1208,4.1214,4.1271,4.1285,4.1329,4.1329,4.1389,4.1403,4.1402,4.1451,4.1444,4.1499,4.1494,4.1582,4.157,4.1574,4.157,4.163,4.1623,4.1831,4.1856,4.1676,4.1678,4.1679,0,4.1208,4.1263,4.1285,4.1315,4.133,4.1378,4.1406,4.1391,4.1421,4.1453,4.1493,4.1539,4.1576,4.1656,4.1659,4.17,4.1687,4.1757,4.1693,4.1695,4.1685,4.1681,4.1684,4.1769,4.1771,4.1773,4.1774,0,4.138,4.1374,4.1416,4.1456,4.149,4.1522,4.155,4.1575,4.1562,4.1597,4.1647,4.1675,4.173,4.1775,4.1813,4.1824,4.1796,4.1794,4.181,4.1815,4.1814,4.1812,4.1605,4.179,4.1788,4.1787,4.1786,4.1786,4.1504,4.1549,4.1571,4.1617,4.1636,4.1662,4.1703,4.1707,4.1749,4.1792,4.178,4.1836,4.1857,4.1904,4.1919,4.1961,4.1935,4.1959,4.1964,4.197,4.1975,4.1808,4.1968,4.1968,4.1967,4.1967,4.1967,0,4.1671,4.1683,4.1726,4.1765,4.18,4.1771,4.1799,4.1831,4.188,4.1902,4.1938,4.1993,4.2036,4.2042,4.2082,4.2113,4.2101,4.2124,4.2121,4.2123,4.1998,4.1979,4.2133,4.2133,4.2133,4.2133,4.2133,4.2133,4.1763,4.1836,4.1832,4.1913,4.1923,4.1977,4.1995,4.2018,4.2035,4.2098,4.2133,4.2136,4.2151,4.2191,4.2228,4.2229,4.2244,4.2271,4.2266,4.2149,4.2132,4.2116,4.2098,4.2275,4.2275,4.2387,4.2389,4.2389]}]]